Location: JKWMA (FRAC)
(33.1803°N, 84.5512°W)
Time: 18:18:14
(UTC-04:00)

N. Korean satellite - Visible Passes

Search period start: 15 October 2019 00:00
Search period end: 25 October 2019 00:00
Orbit: 455 x 508 km, 97.2° (Epoch: 14 October)

Date Brightness Start Highest point End Pass type
(mag) Time Alt. Az. Time Alt. Az. Time Alt. Az.
15 Oct 10.2 19:48:34 10° SW 19:50:20 13° W 19:52:06 10° WNW visible
16 Oct 7.4 07:16:57 10° NNE 07:20:29 56° E 07:24:04 10° S visible
16 Oct 8.8 19:21:53 10° SSW 19:24:56 30° W 19:27:59 10° NW visible
17 Oct 9.3 06:52:09 10° NE 06:55:09 24° E 06:58:10 10° SSE visible
18 Oct 10.4 06:28:35 10° ENE 06:29:45 11° E 06:30:54 10° ESE visible
19 Oct 9.9 19:40:10 10° SW 19:42:28 17° W 19:44:48 10° NW visible
20 Oct 8.0 07:09:13 10° NNE 07:12:41 43° E 07:16:12 10° S visible
21 Oct 9.7 06:44:37 10° NE 06:47:20 20° E 06:50:03 10° SE visible
23 Oct 9.5 19:31:53 10° SSW 19:34:35 22° W 19:37:19 10° NW visible
24 Oct 8.6 07:01:30 10° NNE 07:04:51 34° E 07:08:14 10° SSE visible
